Notices

What's New in latest Release from April 7th, 2021:

- Updated Glossary, including Speed of Maximum Gust, and Total Hourly Precipitation

- Updated national and regional climate services offices contacts and prices information

- Addition of station inventory lists for 1981-2010, 1971-2000, and 1961-1990 Normals.

If you haven't already, please take our survey and provide feedback about our website: https://eccc.sondage-survey.ca/f/LanguageSelection.aspx?s=442ca660-fcf1-47c0-95a9-59707d6fd709

Hourly Data Report for March 13, 2019

MIRAMICHI RCS
NEW BRUNSWICK
Current Station Operator: ECCC - MSC

47°00'34.000" N
65°27'54.000" W
33.00 m
8100989
71744
ACQ

Download Data

Hourly Data (March 2019)
Hourly Data Report for March 13, 2019
TIME
LST
Temp Definition
°C
Dew Point Definition
°C
Rel Hum Definition
%
Precip. Amount Definition
mm

Wind Dir Definition
10's deg

Wind Spd Definition
km/h
Visibility Definition
km
Stn Press Definition
kPa
Hmdx Definition


Wind Chill Definition


Weather Definition


00:00 -4.7 -9.4 70 0.0 27 11   101.40   -9 LegendNANA
01:00 -6.4 -10.5 72 0.0 26 9   101.48   -11 LegendNANA
02:00 -7.4 -10.7 77 0.0 25 9   101.56   -12 LegendNANA
03:00 -7.8 -11.3 76 0.0 25 9   101.57   -12 LegendNANA
04:00 -8.2 -11.5 77 0.0 27 10   101.62   -13 LegendNANA
05:00 -9.4 -12.3 79 0.0 28 11   101.69   -15 LegendNANA
06:00 -9.7 -12.7 79 0.0 26 9   101.78   -15 LegendNANA
07:00 -10.6 -13.0 83 0.0 26 8   101.84   -15 LegendNANA
08:00 -9.8 -13.5 74 0.0 23 11   101.87   -15 LegendNANA
09:00 -6.7 -11.5 68 0.0 22 12   101.89   -12 LegendNANA
10:00 -3.7 -10.2 61 0.0 22 13   101.92   -9 LegendNANA
11:00 -0.7 -13.5 37 0.0 29 11   101.87   -4 LegendNANA
12:00 0.9 -11.0 41 0.0 26 9   101.88     LegendNANA
13:00 1.8 -10.8 38 0.0 24 9   101.81     LegendNANA
14:00 3.3 -10.1 36 0.0 24 7   101.77     LegendNANA
15:00 3.8 -9.0 39 0.0 22 12   101.71     LegendNANA
16:00 4.8 -8.9 36 0.0 23 10   101.64     LegendNANA
17:00 4.2 -7.2 43 0.0 23 13   101.66     LegendNANA
18:00 4.1 -10.2 34 0.0 28 8   101.69     LegendNANA
19:00 -0.1 -9.7 48 0.0 22 6   101.74   -2 LegendNANA
20:00 -2.6 -8.7 63 0.0 26 6   101.82   -5 LegendNANA
21:00 -1.3 -8.9 56 0.0 25 9   101.84   -5 LegendNANA
22:00 0.5 -9.2 48 0.0 25 9   101.85     LegendNANA
23:00 0.8 -9.1 47 0.0 25 11   101.88     LegendNANA

Notes on Data Quality.

Legend

  • E = Estimated
  • M = Missing
  • NA = Not Available*
  • [empty] = Indicates an unobserved value
Date modified: